Torna al catalogo

ARIANE 44P R/B

AttivoGTO
NORAD 21727·ROCKET BODY·🇫🇷 France

Lanciato Sep 26, 1991 da Guiana Space Centre

Loading…

TLE

In scadenzaSource: Space-Track

Epoca: Sep 14, 2026, 12:21 UTC

1 21727U 91067B   26257.51506134  .00000018  00000-0  32329-3 0  9990
2 21727   4.5783  19.3177 7164803  27.8536 356.5071  2.34134688256577

Traccia ARIANE 44P R/B in tempo reale con AllMySat

Download on the App Store